Regional Weather Roundup
Issued by NWS

Home | Current Version | Previous Version | Text Only | Print | Product List | Glossary On
Versions: 1 2 3 4 5 6 7 8 9 10 11 12 13 14 15 16 17 18 19 20 21 22 23 24 25 26 27 28 29 30 31 32 33 34 35 36 37 38 39 40 41 42 43 44 45 46 47 48 49 50
000
ASUS44 KFWD 220001
RWRTX
NORTH TEXAS HOURLY WEATHER ROUNDUP
NATIONAL WEATHER SERVICE FORT WORTH TX
600 PM CST SUN JAN 21 2018

NOTE: "FAIR" INDICATES FEW OR NO CLOUDS BELOW 12,000 FEET WITH NO
SIGNIFICANT WEATHER AND/OR OBSTRUCTIONS TO VISIBILITY.

TXZ118-119-220100-
DALLAS/FORT WORTH METROPLEX

CITY           SKY/WX    TMP DP  RH WIND       PRES   REMARKS
DFW AIRPORT    MOCLDY    69  63  81 S20       29.72S
6HR MIN TEMP:  62; 6HR MAX TEMP:  77; 6HR PCP:  0.56;

DALLAS LOVE    CLOUDY    70  62  76 S13G20    29.75R
6HR MIN TEMP:  70; 6HR MAX TEMP:  74; 6HR PCP: TRACE;

FTW MEACHAM    MOCLDY    66  60  81 S9        29.73S
6HR MIN TEMP:  66; 6HR MAX TEMP:  75; 6HR PCP:  0.01;

DAL-EXECUTIVE  MOCLDY    68  63  84 S10G21    29.75S
6HR MIN TEMP:  68; 6HR MAX TEMP:  73; 6HR PCP:  0.11;

FTW-ALLIANCE   MOCLDY    66  57  72 S13       29.72S
6HR MIN TEMP:  66; 6HR MAX TEMP:  75; 6HR PCP: TRACE;

FTW-NAS-JRB    MOCLDY    65  58  78 S10       29.73S
6HR MIN TEMP:  65; 6HR MAX TEMP:  76; 6HR PCP:  0.01;

FTW-SPINKS     MOCLDY    68  61  77 S15G21    29.77S
ARLINGTON      FAIR      68  63  84 S16G24    29.75S
6HR MIN TEMP:  68; 6HR MAX TEMP:  73;

GRAND PRAIRIE    N/A     72  61  68 S16G23    29.76S
ADDISON        CLOUDY    64  59  82 S17G48    29.75S
MESQUITE       CLOUDY    66  63  88 S18G24    29.76F
LANCASTER      MOCLDY    66  62  87 S14       29.77S
6HR MIN TEMP:  66; 6HR MAX TEMP:  72; 6HR PCP:  0.01;

$$

TXZ091>094-102>105-117-120-121-131>134-220100-
NORTH CENTRAL TEXAS

CITY           SKY/WX    TMP DP  RH WIND       PRES   REMARKS
SHRMAN/DENISON MOCLDY    64  58  81 S16       29.72F
6HR MIN TEMP:  62; 6HR MAX TEMP:  74; 6HR PCP:  0.02;

GAINESVILLE    MOCLDY    69  55  61 S13       29.73R
6HR MIN TEMP:  69; 6HR MAX TEMP:  75;

BOWIE          FAIR      69  38  32 SW8       29.71S
6HR MIN TEMP:  69; 6HR MAX TEMP:  76;

BRIDGEPORT     FAIR      70  43  37 W7        29.74R
6HR MIN TEMP:  70; 6HR MAX TEMP:  77;

DECATUR        MOCLDY    70  46  42 SW8       29.72R
6HR MIN TEMP:  69; 6HR MAX TEMP:  74;

DENTON         CLOUDY    66  58  75 S15       29.72R
6HR MIN TEMP:  66; 6HR MAX TEMP:  75; 6HR PCP: TRACE;

MCKINNEY       TSTM      61  55  81 SW22G38   29.76R
6HR MIN TEMP:  61; 6HR MAX TEMP:  73; 6HR PCP:  0.16;

BONHAM         LGT RAIN  64  61  90 S20       29.73F
6HR MIN TEMP:  63; 6HR MAX TEMP:  73; 6HR PCP:  0.18;

ROCKWALL       CLOUDY    67  64  89 S23       29.75F
6HR MIN TEMP:  61; 6HR MAX TEMP:  72; 6HR PCP:  0.43;

TERRELL        TSTM      66  63  90 S10G22    29.77F FOG
6HR MIN TEMP:  66; 6HR MAX TEMP:  73; 6HR PCP:  0.30;

WAXAHACHIE     MOCLDY    66  63  89 S18G24    29.77S
6HR MIN TEMP:  66; 6HR MAX TEMP:  72;

CLEBURNE       CLOUDY    66  64  94 S14       29.77F
GRANBURY       CLOUDY    71  60  69 S10       29.76S
6HR MIN TEMP:  71; 6HR MAX TEMP:  76;

$$

TXZ083>090-098>101-113>116-127>130-139>142-154-155-220100-
WESTERN NORTH TEXAS

CITY           SKY/WX    TMP DP  RH WIND       PRES   REMARKS
WICHITA FALLS  CLOUDY    66   8  10 W21G30    29.71R HAZE
6HR MIN TEMP:  66; 6HR MAX TEMP:  75;

WF-KICKAPOO    CLOUDY    67  11  11 W14G28    29.75R HAZE
6HR MIN TEMP:  67; 6HR MAX TEMP:  74;

VERNON           N/A    N/A N/A N/A W18       29.74S
ABILENE        CLOUDY    62   1   8 W21G31    29.83R
6HR MIN TEMP:  62; 6HR MAX TEMP:  72;

ABILENE-DYESS  FAIR      62   5  10 W18G30    29.83R
6HR MIN TEMP:  62; 6HR MAX TEMP:  72;

BRECKENRIDGE   CLOUDY    68  13  12 W22G33    29.79R HAZE
6HR MIN TEMP:  68; 6HR MAX TEMP:  76;

CISCO          FAIR      68  23  18 W15G24    29.80R HAZE
RANGER         FAIR      68  34  28 W7        29.78R
MINERAL WELLS  FAIR      70  43  37 SW7       29.72S
6HR MIN TEMP:  69; 6HR MAX TEMP:  78;

STEPHENVILLE   FAIR      71  42  35 SW8       29.80R
6HR MIN TEMP:  67; 6HR MAX TEMP:  77;

COMANCHE       FAIR      70  40  33 W9        29.79S
6HR MIN TEMP:  67; 6HR MAX TEMP:  77;

COLEMAN          N/A     66  24  20 W16       29.84
$$

TXZ143>147-156>162-174-175-220100-
CENTRAL TEXAS

CITY           SKY/WX    TMP DP  RH WIND       PRES   REMARKS
WACO           FAIR      65  61  87 S13       29.79S
6HR MIN TEMP:  64; 6HR MAX TEMP:  72; 6HR PCP:  0.01;

WACO-TSTC      CLOUDY    68  63  83 S14G21    29.79F
WACO-MCGREGOR  FAIR      66  63  90 S10       29.81R
6HR MIN TEMP:  66; 6HR MAX TEMP:  72; 6HR PCP: TRACE;

CORSICANA      TSTM      65  64  97 S9        29.80S
6HR MIN TEMP:  65; 6HR MAX TEMP:  73; 6HR PCP:  0.66;

MEXIA          CLOUDY    68  61  78 S20G29    29.80S
6HR MIN TEMP:  66; 6HR MAX TEMP:  72;

HEARNE         DRIZZLE   67  65  94 SE13G18   29.85R
6HR MIN TEMP:  67; 6HR MAX TEMP:  71;

CAMERON        CLOUDY    68  63  82 S12       29.82F
6HR MIN TEMP:  68; 6HR MAX TEMP:  72; 6HR PCP:  0.01;

TEMPLE         MOCLDY    67  64  90 S15       29.82R
6HR MIN TEMP:  67; 6HR MAX TEMP:  71; 6HR PCP:  0.02;

KILLEEN        MOCLDY    68  61  78 S9        29.80R
6HR MIN TEMP:  67; 6HR MAX TEMP:  70; 6HR PCP: TRACE;

KILLEEN-SKYLRK CLOUDY    68  62  81 S7        29.82R
6HR MIN TEMP:  68; 6HR MAX TEMP:  70; 6HR PCP: TRACE;

FORT HOOD      CLOUDY    67  60  76 S13       29.78R
6HR MIN TEMP:  67; 6HR MAX TEMP:  69;

GATESVILLE     FAIR      68  61  77 S9        29.81S
LAMPASAS       FAIR      69  56  64 SW7       29.80F
6HR MIN TEMP:  68; 6HR MAX TEMP:  72;

$$

TXZ095>097-106>112-122>126-135>138-148>153-164>167-220100-
EAST TEXAS

CITY           SKY/WX    TMP DP  RH WIND       PRES   REMARKS
PARIS          HVY RAIN  64  62  93 S22G28    29.75F FOG
6HR MIN TEMP:  64; 6HR MAX TEMP:  74; 6HR PCP:  0.33;

SULPHUR SPRNGS LGT RAIN  65  63  91 S15G22    29.78S
6HR MIN TEMP:  65; 6HR MAX TEMP:  72; 6HR PCP:  0.28;

MOUNT PLEASANT FAIR      69  60  70 SE16G24   29.80F
6HR MIN TEMP:  68; 6HR MAX TEMP:  71;

GILMER         CLOUDY    69  59  69 SE12G18   29.81F
6HR MIN TEMP:  68; 6HR MAX TEMP:  70;

MINEOLA        MOCLDY    70  61  73 S10G24    29.78F
TYLER          MOCLDY    70  60  70 S21G30    29.80F
6HR MIN TEMP:  70; 6HR MAX TEMP:  72; 6HR PCP: TRACE;

LONGVIEW       MOCLDY    70  63  78 S17       29.84S
6HR MIN TEMP:  68; 6HR MAX TEMP:  72;

MARSHALL       CLOUDY    66  60  80 SE7       29.88S
6HR MIN TEMP:  65; 6HR MAX TEMP:  70;

ATHENS         CLOUDY    64  57  77 S12       29.79S
PALESTINE      CLOUDY    69  62  78 SE10G16   29.85S
JACKSONVILLE   CLOUDY    69  61  75 S15G21    29.88S
CENTER         FAIR      67  59  75 S12       29.91R
6HR MIN TEMP:  64; 6HR MAX TEMP:  73;

NACOGDOCHES    MOCLDY    69  61  75 S13       29.88S
6HR MIN TEMP:  68; 6HR MAX TEMP:  75;

LUFKIN         CLOUDY    69  62  78 S15       29.88S
6HR MIN TEMP:  69; 6HR MAX TEMP:  74;

$$

SUPPLEMENTAL OBSERVATIONS (NWS FORT WORTH AREA)

CITY           SKY/WX    TMP DP  RH WIND       PRES   REMARKS
$$

SUPPLEMENTAL OBSERVATIONS (NWS NORMAN AREA)

CITY           SKY/WX    TMP DP  RH WIND       PRES   REMARKS
GOODLETT         N/A     59   9  14 SW21G28   29.74R
ODELL            N/A     60   7  12 W16       29.74R
CROWELL          N/A     61   5  11 W21       29.76R
KNOX CITY        N/A     62   2   9 W21G29    29.79R
SEYMOUR          N/A     63   4   9 SW23G30   29.77R
$$

SUPPLEMENTAL OBSERVATIONS (NWS SAN ANGELO AREA)

CITY           SKY/WX    TMP DP  RH WIND       PRES   REMARKS
WEINERT          N/A     61   3   9 W17G24    29.80R
HASKELL          N/A     61   1   9 W22G28    29.81R
THROCKMORTON     N/A     62  20  20 W16       29.79R
STAMFORD         N/A     62   6  11 W31       29.82R
CLYDE            N/A     62   9  12 W18       29.84R
$$

SUPPLEMENTAL OBSERVATIONS (NWS SHREVEPO



USA.gov is the U.S. government's official web portal to all federal, state and local government web resources and services.